Regional Weather Roundup
Issued by NWS Newport/Morehead, NC

Current Version | Previous Version | Graphics & Text | Print | Product List | Glossary Off
Versions: 1 2 3 4 5 6 7 8 9 10 11 12 13 14 15 16 17 18 19 20 21 22 23 24 25 26 27 28 29 30 31 32 33 34 35 36 37 38 39 40 41 42 43 44 45 46 47 48 49 50

000
ASUS42 KMHX 250013
RWRMHX
WEATHER ROUNDUP FOR EASTERN NORTH CAROLINA
NATIONAL WEATHER SERVICE NEWPORT/MOREHEAD CITY NC
800 PM EDT TUE MAY 24 2016

NOTE: "FAIR" INDICATES FEW OR NO CLOUDS BELOW 12,000 FEET
WITH NO SIGNIFICANT WEATHER AND/OR OBSTRUCTIONS TO VISIBILITY

NCZ015>017-031-032-045>047-102-103-250100-
NORTH COAST

CITY           SKY/WX    TMP DP  RH WIND       PRES   REMARKS
EDENTON        CLEAR     79  60  51 CALM      30.06S
ELIZABETH CITY CLEAR     74  58  57 SW5       30.05R
KITTY HAWK     CLEAR     76  58  54 S3        30.05R
MANTEO         PTCLDY    75  63  66 SW10      30.07R

$$

NCZ045>047-081-094-103-104-250100-
CENTRAL COAST

CITY           SKY/WX    TMP DP  RH WIND       PRES   REMARKS
FRISCO         CLEAR     69  61  75 SW12      30.10R

$$

NCZ095-097-098-100-101-250100-
SOUTHERN COAST

CITY           SKY/WX    TMP DP  RH WIND       PRES   REMARKS
BEAUFORT       CLEAR     70  59  68 SW14      30.11R
CEDAR ISLAND   NOT AVBL
JACKSONVILLE   CLEAR     71  57  61 S7        30.10R
PINEY ISLAND   CLEAR    N/A N/A N/A SW10      30.10R
WILMINGTON     CLEAR     73  55  53 SW8       30.11R


$$

NCZ011>013-027>030-043-044-078>080-089-090>093-098-250100-
COASTAL PLAIN

CITY           SKY/WX    TMP DP  RH WIND       PRES   REMARKS
AHOSKIE        CLEAR     72  58  62 CALM      30.06S
CLINTON        PTCLDY    77  59  54 CALM      30.10R
ELIZABETHTOWN  CLEAR     78  56  46 CALM      30.10S
GOLDSBORO      CLEAR     78  53  41 SW6       30.07R
GREENVILLE     CLEAR     75  59  57 SW3       30.08S
HAVELOCK       PTCLDY    70  56  61 S7        30.11R
KENANSVILLE    CLEAR     71  61  70 CALM      30.10R
KINSTON        CLEAR     73  57  56 SW6       30.09R
NEW BERN       CLEAR     71  57  61 S8        30.11R
RICHLANDS      CLEAR     72  60  66 S7        30.11R
ROCKY MOUNT    CLEAR     73  58  59 CALM      30.07R
WASHINGTON     CLEAR     75  55  49 SW3       30.06S
WHITEVILLE     CLEAR     76  58  53 S6        30.11S

$$

AMZ130-135-150-152-154-156-158-170-250-252-270-ANZ085-086-088-633-658-670-250100-
MARINE OBSERVATIONS

STATION/POSITION TIME  TEMP    WIND        PRES    WAVE   SWELL
                       AIR SEA DIR/SP/G            HT/PER HT/PER
                 (UTC) (F)     (DEG/KT/KT) (MB)    (FT/S) (FT/S)
CHESAPEAKE LIGHT 2300   71     170/ 10/ 10 1017.8
64 E VA BEACH    2350   63 57  210/  8/ 10 1017.7    3/ 9   3/ 9
DUCK             2300   76 61              1016.8
2 E DUCK         2311      63                N/A     2/ 9
OREGON INLET     2300   71 68              1017.8
13E OREGON INLT  0000      63                N/A     3/ 8   2/ 8
HATTERAS CG      2300   70 67              1018.5
DIAMOND BUOY     2350   72 79  240/ 17/ 21 1018.9    3/10   2/10
CAPE LOOKOUT     0000   70     220/  9/ 12 1019.6
BEAUFORT LAB     2300   72 69              1018.6
30 SE NEW RVR IN 2325      73                N/A     4/ 4
27 SE WRIGHTSVLE 2308   73 73  220/ 14/ 17 1019.2
5 SE WRIGHTSVLE  NOT AVBL
225 S CAPE HAT   2350   73 78   20/  6/  8 1021.0    5/ 9   5/ 9
41 SE CHARLESTON 2350   76 76  160/ 10/ 10 1020.2    2/ 9   2/ 9

$$




USA.gov is the U.S. government's official web portal to all federal, state and local government web resources and services.